Other Public Products
Issued by NWS Grand Forks, ND

Home | Current Version | Previous Version | Text Only | Print | Product List | Glossary Off
Versions: 1 2 3 4 5 6 7 8 9 10 11 12 13 14 15 16 17 18 19 20 21 22 23 24 25 26 27 28 29 30 31 32 33 34 35 36 37 38 39 40 41 42 43 44 45 46 47 48 49 50

672
FPUS83 KFGF 220831
OPUFGF
PRAIRIE TO PINES WEATHER ROUNDUP
NATIONAL WEATHER SERVICE EASTERN NORTH DAKOTA/GRAND FORKS ND
300 AM CDT TUE AUG 22 2017

 **SATELLITE DATA USED TO AUGMENT SKY COVER AT AUTOMATED STATIONS**
 *****  WEATHER ACROSS EASTERN NORTH DAKOTA  *****

CITY           SKY/WX    TMP DP  RH WIND       PRES   REMARKS
GRAND FORKS    FAIR      50  47  89 W6        29.99S
GRAND FORKS AF FAIR      52  46  80 NW8       30.00S
GRAND CITY NWS NOT AVBL
BUXTON           N/A     51  49  92 W3          N/A
DEVILS LAKE    FAIR      54  45  71 NW12      30.06S
FARGO          FAIR      50  49  96 W8        30.02R
WAHPETON ARPT  FAIR      50  46  87 W7        30.04R
$$

 *****  WEATHER ACROSS CENTRAL AND WESTERN NORTH DAKOTA  *****

CITY           SKY/WX    TMP DP  RH WIND       PRES   REMARKS
JAMESTOWN      FAIR      50  46  86 W3        30.07S
BISMARCK       FAIR      51  45  79 NW5       30.14S
MINOT          FAIR      51  41  68 SW7       30.11F
MINOT AFB      FAIR      47  39  75 W10       30.10S
GARRISON         N/A     46  41  82 NW8       30.13S
WILLISTON      FAIR      43  37  79 CALM      30.17F
DICKINSON      FAIR      45  38  76 CALM      30.18R
HETTINGER      FAIR      45  38  76 N3        30.21R
$$

 *****  OTHER OBSERVATIONS NORTHEAST NORTH DAKOTA  *****

CITY           SKY/WX    TMP DP  RH WIND       PRES   REMARKS
WALHALLA       FAIR      55  55 100 NW9       30.00R
LANGDON        FAIR      46  46 100 W8        30.04S
CAVALIER       FAIR      52  45  76 W10       29.99R
GRAFTON        FAIR      54  48  82 W10       30.00S
CANDO          FAIR      48  48 100 W7        30.08S
FORT TOTTEN      N/A     60  48  64 NW5       29.95S
ROLLA          FAIR      48  43  81 NW10      30.08S
RUGBY          FAIR      45  43  93 W7        30.08F
 ***** THE ABOVE OBSERVATIONS ARE NON NWS ARE NOT QUALITY
        CONTROLLED AND MAY MIS-REPORT RAIN FOR SNOW...
$$

 *****  OTHER OBSERVATIONS SOUTHEAST NORTH DAKOTA *****

CITY           SKY/WX    TMP DP  RH WIND       PRES   REMARKS
COOPERSTOWN    FAIR      52  48  87 W9        30.06R
VALLEY CITY      N/A     52  52 100 W12       30.07S
OAKES          NOT AVBL
GWINNER        SUNNY     55  50  82 W8        30.06S
SHEYENNE NWR     N/A     52  49  91 W5        29.95S
BUFFALO          N/A     50  47  90 N6          N/A
WYNDMERE       NOT AVBL
 ***** THE ABOVE OBSERVATIONS ARE NON NWS ARE NOT QUALITY
       CONTROLLED AND MAY MIS-REPORT RAIN FOR SNOW...
$$

  *****  WEATHER ACROSS NORTHERN MINNESOTA  *****

CITY           SKY/WX    TMP DP  RH WIND       PRES   REMARKS
FLAG ISLAND      N/A     52  48  87 W5        29.91R
WARROAD        FAIR      48  45  87 SW3       29.94S
ROSEAU         FAIR      52  46  82 W9        29.95R
HALLOCK        FAIR      46  45  93 W8        29.97S
THF RVR FALLS  FAIR      50  48  93 W8        29.99F
HALSTAD          N/A     48  46  93 W6          N/A
FOSSTON        FAIR      48  46  93 CALM      30.00S
BAUDETTE       FAIR      50  50 100 W6        29.92R
WASKISH        FAIR      55  52  88 NW13G18   29.95R
CROOKSTON      FAIR      48  48 100 NW3       30.00S
$$
  *****  WEATHER ACROSS CENTRAL AND WEST MINNESOTA  *****

CITY           SKY/WX    TMP DP  RH WIND       PRES   REMARKS
BEMIDJI        FAIR      52  50  93 W9        29.97S
PARK RAPIDS    FAIR      53  50  89 NW9       29.97R
WADENA         FAIR      52  52 100 NW6       29.98R
DETROIT LAKES  FAIR      52  50  93 NW8       30.02R
MOORHEAD       FAIR      52  50  93 W7        30.03R
FERGUS FALLS   FAIR      52  52 100 NW5       30.03R
ELBOW LAKE     FAIR      55  54  95 NW9       30.02R
MORRIS MN      FAIR      55  54  94 NW9       30.01R
STAPLES        FAIR      54  52  94 NW7       29.97R
WHEATON        FAIR      55  52  88 W9        30.05S
$$
  *****  WEATHER ELSEWHERE ACROSS MINNESOTA  *****

CITY           SKY/WX    TMP DP  RH WIND       PRES   REMARKS
DULUTH         FAIR      54  54 100 NW6       29.85S
INTRNTL FALLS  MOCLDY    50  49  96 W5        29.88S
ELY            MOCLDY    52  52 100 CALM      29.85S
CLOQUET        FAIR      55  52  88 W6        29.87S
BRAINERD       FAIR      57  55  93 NW10      29.94R
HIBBING        FAIR      53  51  93 NW10      29.88R
ALEXANDRIA     FAIR      58  54  86 NW12      30.00R
SAINT CLOUD    FAIR      61  57  87 NW14G22   29.93R
MINNEAPOLIS    FAIR      65  60  84 NW7       29.89S
$$

  *****  WEATHER ACROSS SOUTH DAKOTA  *****

CITY           SKY/WX    TMP DP  RH WIND       PRES   REMARKS
SIOUX FALLS    FAIR      61  56  83 N10       30.06R
BROOKINGS      FAIR      56  52  86 N7        30.07R
WATERTOWN      FAIR      55  51  86 N9        30.06R
HURON          FAIR      50  49  96 NW8       30.09S
SISSETON         N/A     56  52  86 NW8       30.04R
ABERDEEN       FAIR      52  46  80 NW7       30.09R
MITCHELL       FAIR      56  52  86 NW9       30.10R
PIERRE         FAIR      56  46  69 N8        30.13S
MOBRIDGE       FAIR      52  47  83 N6        30.12S
RAPID CITY     FAIR      54  41  61 NW6       30.22S
$$

  *****  SOME WEATHER IN NEARBY STATES *****

CITY           SKY/WX    TMP DP  RH WIND       PRES   REMARKS
GLASGOW MT     NOT AVBL
GREAT FALLS MT FAIR      58  35  42 E5        30.15F
CHEYENNE WY    FAIR      57  44  62 SE3       30.35R
SCOTTSBLUFF NE FAIR      56  46  69 E6        30.26R
OMAHA NE       CLOUDY    67  63  87 W5        30.02R
DES MOINES IA  CLOUDY    66  65  96 NW6       29.96F
DAVENPORT IA   FAIR      68  66  93 SW13      29.92S
CHICAGO IL     CLOUDY    75  69  81 SW12G24   29.86R
EAU CLAIRE WI  MOCLDY    65  63  93 W9        29.82S
LA CROSSE WI   MOCLDY    70  64  81 W10       29.85F
$$

  *****  SOME NATIONAL WEATHER *****

CITY           SKY/WX    TMP DP  RH WIND       PRES   REMARKS
LA GUARDIA NY  FAIR      76  73  91 S7        30.03F
RALEIGH NC     FAIR      76  73  91 SW6       30.12F
ATLANTA GA     FAIR      75  71  87 CALM      30.14F
NEW ORLEANS LA MOCLDY    77  76  96 CALM      30.03F
OKLAHOMA CITY  FAIR      76  70  82 S13       30.03F
ALBUQUERQUE NM MOCLDY    71  52  50 N10       30.26F
SALT LAKE CITY FAIR      75  44  33 CALM      30.14R
LOS ANGELES CA FAIR      67  64  90 SW6       29.98F
BOISE ID       FAIR      66  39  37 SE10      30.06S
SEATTLE WA     FAIR      69  54  58 N8        30.00S
$$

*** WEATHER ACROSS MANITOBA...SASKATCHEWAN AND ONTARIO ***
                ***ONTARIO***

CITY           SKY/WX    TMP DP  RH WIND       PRES   REMARKS
GERALDTON      LGT RAIN  55  54  94 N3        29.75F
THUNDER BAY    CLOUDY    57  55  94 VRB2      29.77F
SIOUX LOOKOUT  MOCLDY    54  52  94 NW7       29.81S
TORONTO        MOCLDY    72  66  83 SE6       29.85F
BIG TROUT LK   MOCLDY    54  52  94 N6        29.73S
PICKLE LAKE    NOT AVBL
DRYDEN         PTCLDY    50  50 100 W6        29.84S
KENORA         MOCLDY    52  48  87 W7        29.89F
$$
                *** MANITOBA***

CITY           SKY/WX    TMP DP  RH WIND       PRES   REMARKS
BRANDON        PTCLDY    43  41  93 W9        30.05S
DAUPHIN        PTCLDY    52  45  76 W12       30.00F
ISLAND LAKE    MOCLDY    54  52  94 W6        29.83R
PILOT MOUND      N/A     48  43  81 W5          N/A
THE PAS        CLEAR     61  50  67 NW10      29.99R
THOMPSON       DRIZZLE   52  50  93 N6        29.96R
WINNIPEG       MOCLDY    52  48  87 W10       29.95S
LYNN LAKE      CLOUDY    54  50  87 MISG      30.01R
CHURCHILL      CLOUDY    46  43  87 NE12      30.01R
GILLAM         LGT RAIN  50  48  93 N20G26    29.92R
$$
                ***SASKATCHEWAN***

CITY           SKY/WX    TMP DP  RH WIND       PRES   REMARKS
ESTEVAN        CLEAR     45  39  81 W7        30.14S
KINDERSLEY     PTCLDY    50  39  66 S7        30.12S
LLOYDMINSTER   CLOUDY    55  48  76 S8        30.07F
PRINCE ALBERT  CLEAR     41  37  87 W3        30.10S
REGINA         PTCLDY    43  34  70 W3        30.14
YORKTON        CLEAR     48  43  81 W12       30.08S



USA.gov is the U.S. government's official web portal to all federal, state and local government web resources and services.